Regional Weather Roundup
Issued by NWS Newport/Morehead, NC

Current Version | Previous Version | Graphics & Text | Print | Product List | Glossary On
Versions: 1 2 3 4 5 6 7 8 9 10 11 12 13 14 15 16 17 18 19 20 21 22 23 24 25 26 27 28 29 30 31 32 33 34 35 36 37 38 39 40 41 42 43 44 45 46 47 48 49 50
000 ASUS42 KMHX 240825 RWRMHX WEATHER ROUNDUP FOR EASTERN NORTH CAROLINA NATIONAL WEATHER SERVICE NEWPORT/MOREHEAD CITY NC 400 AM EDT SAT JUN 24 2017 NOTE: "FAIR" INDICATES FEW OR NO CLOUDS BELOW 12,000 FEET WITH NO SIGNIFICANT WEATHER AND/OR OBSTRUCTIONS TO VISIBILITY NCZ015>017-031-032-045>047-102-103-240900- NORTH COAST CITY SKY/WX TMP DP RH WIND PRES REMARKS EDENTON CLEAR 80 69 69 SW18G25 29.85S ELIZABETH CITY PTCLDY 79 70 74 SW18G28 29.82F KITTY HAWK SUNNY 79 71 74 SW14G29 29.83S MANTEO CLEAR 79 72 80 SW23G30 29.85S $$ NCZ045>047-081-094-103-104-240900- CENTRAL COAST CITY SKY/WX TMP DP RH WIND PRES REMARKS FRISCO CLEAR 79 74 84 SW20G28 29.91S $$ NCZ095-097-098-100-101-240900- SOUTHERN COAST CITY SKY/WX TMP DP RH WIND PRES REMARKS BEAUFORT CLOUDY 80 78 94 SW22G29 29.93R CEDAR ISLAND NOT AVBL JACKSONVILLE CLEAR 79 74 84 SW10G18 29.91S PINEY ISLAND MOSUNNY N/A N/A N/A SW20G30 29.91R WILMINGTON MOCLDY 80 75 84 S14G26 29.93S $$ NCZ011>013-027>030-043-044-078>080-089-090>093-098-240900- COASTAL PLAIN CITY SKY/WX TMP DP RH WIND PRES REMARKS AHOSKIE N/A 76 71 83 S10 29.80F CLINTON CLEAR 76 73 89 SW7 29.90S ELIZABETHTOWN NOT AVBL GOLDSBORO CLEAR 77 75 92 SW13G24 29.86S GREENVILLE CLEAR 77 70 78 SW14G21 29.88S HAVELOCK PTCLDY 80 74 81 SW24G33 29.91S KENANSVILLE CLEAR 77 72 83 SW3 29.90S KINSTON CLEAR 77 71 81 SW14 29.89S NEW BERN CLEAR 78 73 84 SW13G21 29.91S RICHLANDS CLEAR 78 73 84 S14G21 29.92R ROCKY MOUNT CLEAR 77 72 84 S15G26 29.83F WASHINGTON CLEAR N/A N/A N/A SW12G18 29.87S WHITEVILLE PTCLDY 78 73 83 SW8 29.93S $$ AMZ130-135-150-152-154-156-158-170-250-252-270-ANZ085-086-088-633-658-670-240900- MARINE OBSERVATIONS STATION/POSITION TIME TEMP WIND PRES WAVE SWELL AIR SEA DIR/SP/G HT/PER HT/PER (UTC) (F) (DEG/KT/KT) (MB) (FT/S) (FT/S) CHESAPEAKE LIGHT NOT AVBL 64 E VA BEACH 0750 74 70 210/ 19/ 23 1010.0 7/ 7 2/10 DUCK 0800 80 61 210/ 20/ 26 1009.4 2 E DUCK NOT AVBL OREGON INLET 0800 80 81 210/ 27/ 32 1010.9 13E OREGON INLT 0748 68 N/A 5/ 5 2/ 8 HATTERAS CG 0800 78 78 220/ 16/ 22 1012.5 DIAMOND BUOY 0750 81 80 220/ 23/ 29 1012.5 7/ 6 2/13 CAPE LOOKOUT 0800 80 220/ 18/ 23 1013.1 BEAUFORT LAB 0800 80 78 220/ 9/ 17 1012.8 30 SE NEW RVR IN 0808 80 80 220/ 21/ 29 1013.5 30 SE NEW RVR IN 0743 80 N/A 7/ 6 2/11 27 SE WRIGHTSVLE 0808 79 79 210/ 21/ 31 1012.7 5 SE WRIGHTSVLE 0808 80 78 210/ 14/ 23 1013.9 225 S CAPE HAT 0750 81 81 210/ 16/ 19 1017.4 4/ 8 2/ 8 41 SE CHARLESTON 0810 81 81 210/ 21/ 25 1014.5 $$

USA.gov is the U.S. government's official web portal to all federal, state and local government web resources and services.